NR16KM KHWO-KHWO

Flight info

Callsign NR16KM
Flight time 0h 28m
Altitude 2500
Route VFR LOCAL
Aircraft C152/L-SFG/C

Departure

Time 2026-04-18 18:25
Airport North Perry Airport (KHWO)

Arrival

Time 2026-04-18 18:54
Airport North Perry Airport (KHWO)
Time Latitude Longitude Altitude Speed Heading
2026-04-18 18:16 25.99716 -80.23781 14 ft 0 kts 357°
2026-04-18 18:19 25.99717 -80.23781 14 ft 1 kts 355°
2026-04-18 18:19 25.99720 -80.23781 14 ft 0 kts 354°
2026-04-18 18:21 25.99726 -80.23794 14 ft 7 kts 258°
2026-04-18 18:22 25.99713 -80.23873 13 ft 7 kts 269°
2026-04-18 18:22 25.99750 -80.23883 12 ft 10 kts 313°
2026-04-18 18:22 25.99758 -80.23964 11 ft 12 kts 269°
2026-04-18 18:22 25.99761 -80.24046 11 ft 9 kts 272°
2026-04-18 18:23 25.99760 -80.24125 10 ft 9 kts 270°
2026-04-18 18:23 25.99761 -80.24177 10 ft 11 kts 269°
2026-04-18 18:23 25.99761 -80.24266 9 ft 12 kts 270°
2026-04-18 18:23 25.99772 -80.24327 9 ft 7 kts 317°
2026-04-18 18:24 25.99781 -80.24331 9 ft 4 kts 359°
2026-04-18 18:24 25.99823 -80.24315 9 ft 7 kts 96°
2026-04-18 18:24 25.99822 -80.24169 10 ft 40 kts 91°
2026-04-18 18:24 25.99827 -80.23779 100 ft 57 kts 88°
2026-04-18 18:25 25.99828 -80.23325 290 ft 56 kts 86°
2026-04-18 18:25 25.99837 -80.22881 417 ft 60 kts 85°
2026-04-18 18:25 25.99865 -80.22413 584 ft 67 kts 90°
2026-04-18 18:25 25.99851 -80.21881 830 ft 71 kts 93°
2026-04-18 18:26 25.99852 -80.21329 973 ft 75 kts 87°
2026-04-18 18:26 25.99878 -80.20741 1083 ft 78 kts 89°
2026-04-18 18:26 25.99894 -80.20117 1267 ft 84 kts 89°
2026-04-18 18:26 25.99911 -80.19479 1504 ft 87 kts 91°
2026-04-18 18:27 25.99926 -80.18754 1530 ft 97 kts 90°
2026-04-18 18:27 25.99907 -80.18042 1569 ft 88 kts 94°
2026-04-18 18:27 25.99869 -80.17381 1619 ft 82 kts 95°
2026-04-18 18:27 25.99844 -80.16738 1627 ft 84 kts 92°
2026-04-18 18:28 25.99845 -80.16075 1601 ft 89 kts 90°
2026-04-18 18:28 25.99848 -80.15414 1564 ft 87 kts 92°
2026-04-18 18:28 25.99775 -80.14736 1524 ft 91 kts 101°
2026-04-18 18:28 25.99637 -80.14054 1544 ft 93 kts 103°
2026-04-18 18:29 25.99435 -80.13353 1549 ft 97 kts 110°
2026-04-18 18:29 25.99249 -80.12639 1555 ft 96 kts 97°
2026-04-18 18:29 25.99198 -80.11901 1643 ft 95 kts 90°
2026-04-18 18:29 25.99398 -80.11186 1604 ft 102 kts 75°
2026-04-18 18:30 25.99425 -80.10479 1665 ft 89 kts 114°
2026-04-18 18:30 25.98903 -80.10236 1723 ft 93 kts 177°
2026-04-18 18:30 25.98226 -80.10243 1636 ft 71 kts 163°
2026-04-18 18:30 25.97620 -80.10219 1507 ft 100 kts 182°
2026-04-18 18:31 25.96886 -80.10364 1353 ft 114 kts 188°
2026-04-18 18:31 25.96093 -80.10555 1161 ft 117 kts 187°
2026-04-18 18:31 25.95321 -80.10762 1112 ft 113 kts 192°
2026-04-18 18:31 25.94604 -80.11019 1212 ft 101 kts 198°
2026-04-18 18:32 25.93937 -80.11335 1167 ft 104 kts 201°
2026-04-18 18:32 25.93258 -80.11589 1127 ft 103 kts 188°
2026-04-18 18:32 25.92553 -80.11786 1054 ft 107 kts 198°
2026-04-18 18:32 25.91868 -80.12029 1043 ft 98 kts 182°
2026-04-18 18:33 25.91226 -80.12079 1073 ft 75 kts 173°
2026-04-18 18:33 25.90621 -80.12041 1161 ft 93 kts 165°
2026-04-18 18:33 25.89972 -80.11891 1138 ft 98 kts 165°
2026-04-18 18:33 25.89309 -80.11748 1241 ft 91 kts 166°
2026-04-18 18:34 25.88601 -80.11637 1030 ft 105 kts 169°
2026-04-18 18:34 25.87889 -80.11619 994 ft 101 kts 178°
2026-04-18 18:34 25.87198 -80.11662 936 ft 99 kts 177°
2026-04-18 18:34 25.86510 -80.11710 914 ft 98 kts 176°
2026-04-18 18:35 25.85825 -80.11732 860 ft 98 kts 176°
2026-04-18 18:35 25.85168 -80.11744 910 ft 93 kts 175°
2026-04-18 18:35 25.84553 -80.11709 1046 ft 88 kts 170°
2026-04-18 18:35 25.83890 -80.11780 1018 ft 100 kts 187°
2026-04-18 18:36 25.83193 -80.11928 1075 ft 98 kts 181°
2026-04-18 18:36 25.82649 -80.12258 1384 ft 99 kts 247°
2026-04-18 18:36 25.82678 -80.13120 1487 ft 113 kts 274°
2026-04-18 18:36 25.82739 -80.14008 1502 ft 117 kts 274°
2026-04-18 18:37 25.82785 -80.14869 1491 ft 109 kts 273°
2026-04-18 18:37 25.82805 -80.15709 1496 ft 109 kts 271°
2026-04-18 18:37 25.82867 -80.16583 1521 ft 115 kts 278°
2026-04-18 18:37 25.82967 -80.17453 1580 ft 110 kts 277°
2026-04-18 18:38 25.83030 -80.18309 1639 ft 113 kts 271°
2026-04-18 18:38 25.83046 -80.19189 1839 ft 114 kts 272°
2026-04-18 18:38 25.83065 -80.20068 1880 ft 112 kts 272°
2026-04-18 18:38 25.83081 -80.20938 1864 ft 117 kts 268°
2026-04-18 18:39 25.83056 -80.21848 1757 ft 116 kts 265°
2026-04-18 18:39 25.82990 -80.22721 1642 ft 113 kts 262°
2026-04-18 18:39 25.82929 -80.23578 1615 ft 109 kts 263°
2026-04-18 18:39 25.82884 -80.24400 1658 ft 105 kts 266°
2026-04-18 18:40 25.82860 -80.25194 1717 ft 100 kts 262°
2026-04-18 18:40 25.82741 -80.25989 1614 ft 109 kts 258°
2026-04-18 18:40 25.82654 -80.26829 1564 ft 111 kts 261°
2026-04-18 18:40 25.82553 -80.27668 1542 ft 109 kts 259°
2026-04-18 18:41 25.82488 -80.28485 1565 ft 107 kts 265°
2026-04-18 18:41 25.82424 -80.29319 1541 ft 108 kts 262°
2026-04-18 18:41 25.82394 -80.30171 1479 ft 114 kts 268°
2026-04-18 18:41 25.82397 -80.31043 1371 ft 116 kts 266°
2026-04-18 18:42 25.82398 -80.31905 1282 ft 105 kts 253°
2026-04-18 18:42 25.81883 -80.32357 1127 ft 99 kts 188°
2026-04-18 18:42 25.81214 -80.32378 935 ft 95 kts 171°
2026-04-18 18:42 25.80690 -80.32116 777 ft 77 kts 122°
2026-04-18 18:43 25.80298 -80.31124 354 ft 58 kts 101°
2026-04-18 18:43 25.80277 -80.30691 218 ft 56 kts 94°
2026-04-18 18:43 25.80289 -80.30249 96 ft 56 kts 91°
2026-04-18 18:44 25.80307 -80.29826 19 ft 52 kts 91°
2026-04-18 18:44 25.80322 -80.29500 10 ft 30 kts 92°
2026-04-18 18:44 25.80329 -80.29220 10 ft 54 kts 88°
2026-04-18 18:44 25.80363 -80.28754 115 ft 66 kts 84°
2026-04-18 18:45 25.80394 -80.28228 268 ft 68 kts 86°
2026-04-18 18:45 25.80592 -80.27778 470 ft 76 kts 45°
2026-04-18 18:45 25.81140 -80.27573 671 ft 80 kts 15°
2026-04-18 18:45 25.81703 -80.27424 795 ft 86 kts 18°
2026-04-18 18:46 25.82303 -80.27321 917 ft 93 kts
2026-04-18 18:46 25.82921 -80.27346 1034 ft 88 kts 354°
2026-04-18 18:46 25.83565 -80.27500 1065 ft 101 kts 355°
2026-04-18 18:46 25.84273 -80.27656 1069 ft 108 kts 346°
2026-04-18 18:47 25.84994 -80.27917 1106 ft 110 kts 343°
2026-04-18 18:47 25.85691 -80.28106 1364 ft 97 kts 355°
2026-04-18 18:47 25.86359 -80.28238 1499 ft 98 kts 354°
2026-04-18 18:47 25.87045 -80.28414 1637 ft 100 kts 351°
2026-04-18 18:48 25.87713 -80.28607 1836 ft 98 kts 348°
2026-04-18 18:48 25.88406 -80.28761 1925 ft 108 kts 354°
2026-04-18 18:48 25.89165 -80.28944 2031 ft 110 kts 351°
2026-04-18 18:48 25.89914 -80.29127 2121 ft 107 kts 355°
2026-04-18 18:49 25.90658 -80.29299 2063 ft 102 kts 357°
2026-04-18 18:49 25.91420 -80.29377 1661 ft 109 kts
2026-04-18 18:49 25.92114 -80.29460 1619 ft 97 kts 359°
2026-04-18 18:49 25.92757 -80.29544 1693 ft 90 kts 356°
2026-04-18 18:50 25.93426 -80.29645 1637 ft 103 kts
2026-04-18 18:50 25.94098 -80.29734 1651 ft 93 kts 355°
2026-04-18 18:50 25.94743 -80.29834 1708 ft 89 kts 355°
2026-04-18 18:50 25.95402 -80.29944 1499 ft 106 kts 347°
2026-04-18 18:51 25.96069 -80.29977 1384 ft 93 kts 10°
2026-04-18 18:51 25.96729 -80.29964 1251 ft 102 kts 359°
2026-04-18 18:51 25.97449 -80.30017 1166 ft 109 kts
2026-04-18 18:51 25.98041 -80.30028 1232 ft 73 kts
2026-04-18 18:52 25.98641 -80.30041 1253 ft 93 kts
2026-04-18 18:52 25.99237 -80.29852 1208 ft 94 kts 50°
2026-04-18 18:52 25.99602 -80.29262 1208 ft 92 kts 70°
2026-04-18 18:52 25.99744 -80.28582 1216 ft 92 kts 84°
2026-04-18 18:53 25.99863 -80.27910 1179 ft 85 kts 79°
2026-04-18 18:53 25.99862 -80.27228 940 ft 86 kts 100°
2026-04-18 18:53 25.99824 -80.26603 757 ft 81 kts 90°
2026-04-18 18:53 25.99836 -80.26027 487 ft 64 kts 89°
2026-04-18 18:54 25.99834 -80.25556 398 ft 59 kts 90°
2026-04-18 18:54 25.99826 -80.25115 302 ft 54 kts 89°
2026-04-18 18:54 25.99823 -80.24718 152 ft 48 kts 88°
2026-04-18 18:54 25.99824 -80.24349 31 ft 43 kts 90°
2026-04-18 18:55 25.99823 -80.24090 13 ft 27 kts 88°
2026-04-18 18:55 25.99824 -80.23921 12 ft 15 kts 91°
2026-04-18 18:55 25.99821 -80.23828 11 ft 11 kts 89°
2026-04-18 18:55 25.99810 -80.23776 11 ft 6 kts 133°
2026-04-18 18:56 25.99779 -80.23764 12 ft 3 kts 172°
2026-04-18 18:56 25.99775 -80.23764 12 ft 0 kts 167°
2026-04-18 18:56 25.99749 -80.23751 13 ft 9 kts 148°
2026-04-18 18:56 25.99718 -80.23785 14 ft 9 kts 259°
2026-04-18 18:57 25.99701 -80.23856 13 ft 10 kts 268°
2026-04-18 18:57 25.99719 -80.23894 12 ft 5 kts 248°
2026-04-18 18:57 25.99709 -80.23898 12 ft 5 kts 18°
2026-04-18 18:57 25.99720 -80.23897 12 ft 0 kts